Regional Weather Roundup
Issued by NWS

Home | Current Version | Previous Version | Text Only | Print | Product List | Glossary Off
Versions: 1 2 3 4 5 6 7 8 9 10 11 12 13 14 15 16 17 18 19 20 21 22 23 24 25 26 27 28 29 30 31 32 33 34 35 36 37 38 39 40 41 42 43 44 45 46 47 48 49 50

000
ASUS43 KFSD 241502
RWRSD

WEATHER ROUNDUP FOR SOUTH DAKOTA
NATIONAL WEATHER SERVICE SIOUX FALLS SD
1000 AM CDT MON APR 24 2017

NOTE: "FAIR" INDICATES FEW OR NO CLOUDS BELOW 12,000 FEET WITH NO
SIGNIFICANT WEATHER AND/OR OBSTRUCTIONS TO VISIBILITY.


SDZ001>005-009-010-012>017-241600-
NORTHWEST AND NORTH CENTRAL SOUTH DAKOTA

CITY           SKY/WX    TMP DP  RH WIND       PRES   REMARKS
BUFFALO          N/A     39  36  89 N9        29.57F
FAITH            N/A     33  33 100 N17       29.62S WCI  22
MOBRIDGE       CLOUDY    39  34  82 N16       29.55F
$$

SDZ012>016-024>037-041>051-057-063-072>074-241600-
SOUTHWEST AND SOUTH CENTRAL SOUTH DAKOTA

CITY           SKY/WX    TMP DP  RH WIND       PRES   REMARKS
RAPID CTY ARPT CLOUDY    42  40  92 N20G25    29.61S FOG
PIERRE         LGT RAIN  39  37  92 NW18G26   29.55R
CUSTER         SUNNY     49  30  48 W10G21    29.62R
ELLSWORTH AFB  FOG       41  41 100 N16       29.62  VSB 1
PHILIP         CLOUDY    38  35  89 NW16      29.62S
PINE RIDGE     CLOUDY    45  41  86 NW7       29.64R
SPEARFISH      CLOUDY    45  45 100 NW9       29.65S
WINNER         FAIR      48  39  71 W17       29.57R
$$

SDZ004>011-016>023-039-040-241600-
NORTHEAST SOUTH DAKOTA

CITY           SKY/WX    TMP DP  RH WIND       PRES   REMARKS
ABERDEEN       CLOUDY    51  40  65 NW7       29.53R
WATERTOWN      CLOUDY    54  37  52 S22G30    29.55F
BROOKINGS      CLOUDY    55  37  50 S26G36    29.57F
SISSETON         N/A     59  39  47 SW16G24   29.54F
$$

SDZ017-020-022-023-036>040-048>070-241600-
SOUTHEAST SOUTH DAKOTA

CITY           SKY/WX    TMP DP  RH WIND       PRES   REMARKS
SIOUX FALLS    CLOUDY    57  39  51 S24G32    29.61F
HURON          PTSUNNY   59  38  45 S23G31    29.53S
CHAMBERLAIN    MOSUNNY   49  42  75 W13       29.54S
MITCHELL       CLOUDY    58  38  47 S16G23    29.56F
YANKTON        CLOUDY    55  36  47 S23       29.59F
$$

ABBREVIATIONS USED IN REMARKS
   TC - TEMPERATURE IN CELSIUS
  WCI - WIND CHILL INDEX
   HX - HEAT INDEX
  VSB - VISIBILITY





USA.gov is the U.S. government's official web portal to all federal, state and local government web resources and services.